Location: Killam
(52.7910°N, 111.8608°W)
Time: 10:20:30
(UTC+00:00)

FENGYUN 1C DEB - Pass Details

Date: 29 May 2024
Orbit: 795 x 992 km, 98.4° (Epoch: 16 June)

Event Time Altitude Azimuth Distance (km) Brightness Sun altitude
Rises 05:53:49 0° 16° (NNE) 3,322 ? -12.9°
Reaches altitude 10° 05:56:08 10° 18° (NNE) 2,398 ? -13.0°
Maximum altitude 06:01:26 75° 104° (ESE) 856 ? -13.3°
Enters shadow 06:05:56 15° 189° (S) 2,102 ? -13.6°
